Weather History for Elkins, WV

Change the Weather History Date:

Friday, October 17, 2014

  Actual Average Record
Temperature  
Mean Temperature 62 °F 51 °F  
Max Temperature 73 °F 64 °F 84 °F (1928)
Min Temperature 51 °F 38 °F 22 °F (1970)
Degree Days  
Heating Degree Days 3 14  
Month to date heating degree days 140 199  
Since 1 July heating degree days 287 359  
Cooling Degree Days 0 0  
Month to date cooling degree days 2 0  
Year to date cooling degree days 505 471  
Growing Degree Days 12 (Base 50)    
Moisture  
Dew Point 48 °F    
Average Humidity 62    
Maximum Humidity 89    
Minimum Humidity 35    
Precipitation  
Precipitation T in 0.08 in 1.17 in (1957)
Month to date precipitation 4.79 1.55  
Year to date precipitation 34.25 37.99  
Snow  
Snow 0.00 in - - ()
Month to date snowfall 0.0  
Since 1 September snowfall 0.0  
Snow Depth 0.00 in    
Sea Level Pressure  
Sea Level Pressure 29.82 in    
Wind  
Wind Speed 9 mph (SW)    
Max Wind Speed 18 mph    
Max Gust Speed 26 mph    
Visibility 9 miles    
Events Rain    
T = Trace of Precipitation, MM = Missing Value Source: NWS Daily Summary

Daily Weather History Graph

Daily Weather History Graph

Search for Another Location

Airport:

Trip Planner

Search our weather history database for the weather conditions in past years. The results will help you decide how hot, cold, wet, or windy it might be!

Date:

Astronomy

Oct. 17, 2014 Rise Set
Actual Time 7:30 AM EDT 6:38 PM EDT
Civil Twilight 7:03 AM EDT 7:04 PM EDT
Nautical Twilight 6:32 AM EDT 7:35 PM EDT
Astronomical Twilight 6:02 AM EDT 8:06 PM EDT
Moon 1:36 AM EDT (10/17) 3:21 PM EDT (10/17)
Length of Visible Light 12h 01m
Length of Day
11h 07m
Waning Crescent, 33% of the Moon is Illuminated
Oct 17
Waning Crescent
Oct 23
New
Oct 30
First Quarter
Nov 6
Full
Nov 14
Last Quarter

Hourly Weather History & Observations

Time (EDT) Temp. Dew Point Humidity Pressure Visibility Wind Dir Wind Speed Gust Speed Precip Events Conditions
12:29 AM 53.1 °F 51.1 °F 93% 29.84 in 10.0 mi West 4.6 mph - N/A   Overcast
12:39 AM 54.0 °F 51.1 °F 90% 29.84 in 10.0 mi West 4.6 mph - N/A   Overcast
12:51 AM 54.0 °F 51.1 °F 90% 29.85 in 10.0 mi WSW 8.1 mph - 0.00 in Rain Light Rain
1:23 AM - - N/A% - - WSW 6.9 mph - N/A   Overcast
1:51 AM 53.1 °F 50.0 °F 89% 29.86 in 10.0 mi WSW 6.9 mph - 0.01 in   Overcast
2:14 AM 53.1 °F 48.9 °F 86% 29.85 in 10.0 mi Calm Calm - N/A   Overcast
2:24 AM 53.1 °F 48.9 °F 86% 29.85 in 10.0 mi WNW 3.5 mph - N/A   Overcast
2:51 AM 53.1 °F 50.0 °F 89% 29.86 in 10.0 mi West 6.9 mph - N/A   Overcast
3:51 AM 53.1 °F 50.0 °F 89% 29.84 in 10.0 mi WSW 6.9 mph - 0.00 in   Overcast
4:51 AM 53.1 °F 50.0 °F 89% 29.85 in 10.0 mi WSW 5.8 mph - 0.00 in Rain Light Rain
5:51 AM 52.0 °F 50.0 °F 93% 29.86 in 6.0 mi West 8.1 mph - 0.00 in Rain Light Rain
6:51 AM 52.0 °F 48.9 °F 89% 29.87 in 10.0 mi WSW 6.9 mph - 0.00 in   Overcast
7:10 AM 51.1 °F 48.9 °F 92% 29.86 in 10.0 mi WSW 6.9 mph - N/A   Overcast
7:28 AM 51.1 °F 48.9 °F 92% 29.87 in 10.0 mi SSW 6.9 mph - N/A   Overcast
7:42 AM 51.1 °F 48.9 °F 92% 29.87 in 9.0 mi WSW 8.1 mph - 0.00 in Rain Light Rain
7:51 AM 51.1 °F 48.9 °F 92% 29.89 in 10.0 mi SW 10.4 mph - 0.00 in Rain Light Rain
8:44 AM 51.1 °F 46.9 °F 86% 29.88 in 10.0 mi SW 9.2 mph - 0.00 in   Overcast
8:51 AM 51.1 °F 46.9 °F 86% 29.90 in 10.0 mi SSW 8.1 mph - 0.00 in   Overcast
9:51 AM 53.1 °F 46.9 °F 80% 29.89 in 10.0 mi South 5.8 mph - N/A   Overcast
10:51 AM 55.4 °F 46.4 °F 72% 29.88 in 10.0 mi SSW 10.4 mph - N/A   Overcast
11:51 AM 57.9 °F 48.0 °F 70% 29.86 in 10.0 mi South 6.9 mph - N/A   Partly Cloudy
12:51 PM 63.0 °F 48.0 °F 58% 29.81 in 10.0 mi South 10.4 mph 17.3 mph N/A   Clear
1:51 PM 68.0 °F 44.1 °F 42% 29.75 in 10.0 mi South 8.1 mph - N/A   Clear
2:51 PM 70.0 °F 42.1 °F 36% 29.72 in 10.0 mi South 8.1 mph - N/A   Clear
3:51 PM 72.0 °F 43.0 °F 35% 29.70 in 6.0 mi WSW 13.8 mph 21.9 mph N/A   Haze
4:51 PM 69.8 °F 44.6 °F 40% 29.71 in 5.0 mi WSW 16.1 mph 20.7 mph N/A   Haze
5:51 PM 69.1 °F 46.0 °F 44% 29.72 in 6.0 mi WSW 11.5 mph 18.4 mph N/A   Haze
6:51 PM 66.0 °F 48.0 °F 52% 29.72 in 6.0 mi SW 8.1 mph - N/A   Haze
7:51 PM 63.0 °F 48.9 °F 60% 29.73 in 7.0 mi Variable 4.6 mph - N/A   Scattered Clouds
8:51 PM 64.0 °F 50.0 °F 60% 29.73 in 6.0 mi WSW 10.4 mph - N/A   Haze
9:51 PM 64.9 °F 52.0 °F 63% 29.75 in 10.0 mi West 12.7 mph 18.4 mph N/A   Mostly Cloudy
10:51 PM 62.1 °F 51.1 °F 67% 29.76 in 10.0 mi West 9.2 mph 21.9 mph N/A   Clear
11:51 PM 62.1 °F 50.0 °F 65% 29.75 in 10.0 mi WSW 9.2 mph 20.7 mph N/A   Overcast